Time,TemperatureF,DewpointF,PressureIn,WindDirection,WindDirectionDegrees,WindSpeedMPH,WindSpeedGustMPH,Humidity,HourlyPrecipIn,Conditions,Clouds,dailyrainin,SoftwareType,DateUTC
2013-03-17 00:04:00,46.9,19.3,25.05,NW,304,21.0,-999.0,33,-99.99,,,-99.99,dwt +perl,2013-03-17 07:04:00,
2013-03-17 00:09:00,46.7,20.5,25.05,WNW,303,17.0,-999.0,35,-99.99,,,-99.99,dwt +perl,2013-03-17 07:09:00,
2013-03-17 00:14:00,46.6,23.0,25.05,NNW,343,11.0,-999.0,39,-99.99,,,-99.99,dwt +perl,2013-03-17 07:14:00,
2013-03-17 00:19:00,46.3,25.6,25.05,WNW,292,14.0,-999.0,44,-99.99,,,-99.99,dwt +perl,2013-03-17 07:19:00,
2013-03-17 00:24:00,46.0,26.9,25.05,NW,308,19.0,-999.0,47,-99.99,,,-99.99,dwt +perl,2013-03-17 07:24:00,
2013-03-17 00:29:00,46.0,26.9,25.05,WNW,293,18.0,-999.0,47,-99.99,,,-99.99,dwt +perl,2013-03-17 07:29:00,
2013-03-17 00:34:00,46.1,27.0,25.05,NW,305,23.0,-999.0,47,-99.99,,,-99.99,dwt +perl,2013-03-17 07:34:00,
2013-03-17 00:39:00,46.1,27.0,25.05,NNW,327,12.0,-999.0,47,-99.99,,,-99.99,dwt +perl,2013-03-17 07:39:00,
2013-03-17 00:44:00,45.9,27.3,25.05,NW,308,19.0,-999.0,48,-99.99,,,-99.99,dwt +perl,2013-03-17 07:44:00,
2013-03-17 00:49:00,45.7,27.6,25.05,NNW,336,21.0,-999.0,49,-99.99,,,-99.99,dwt +perl,2013-03-17 07:49:00,
2013-03-17 00:54:00,45.7,27.6,25.04,NW,324,8.0,-999.0,49,-99.99,,,-99.99,dwt +perl,2013-03-17 07:54:00,
2013-03-17 00:59:00,45.8,28.2,25.05,NNW,328,17.0,-999.0,50,-99.99,,,-99.99,dwt +perl,2013-03-17 07:59:00,
2013-03-17 01:04:00,45.7,28.6,25.04,NW,324,14.0,-999.0,51,-99.99,,,-99.99,dwt +perl,2013-03-17 08:04:00,
2013-03-17 01:09:00,45.6,28.5,25.04,NW,308,23.0,-999.0,51,-99.99,,,-99.99,dwt +perl,2013-03-17 08:09:00,
2013-03-17 01:14:00,45.9,27.8,25.04,NNW,341,20.0,-999.0,49,-99.99,,,-99.99,dwt +perl,2013-03-17 08:14:00,
2013-03-17 01:19:00,46.1,27.5,25.04,NW,315,20.0,-999.0,48,-99.99,,,-99.99,dwt +perl,2013-03-17 08:19:00,
2013-03-17 01:24:00,46.2,28.1,25.04,North,359,12.0,-999.0,49,-99.99,,,-99.99,dwt +perl,2013-03-17 08:24:00,
2013-03-17 01:29:00,45.5,28.4,25.04,North,10,16.0,-999.0,51,-99.99,,,-99.99,dwt +perl,2013-03-17 08:29:00,
2013-03-17 01:34:00,45.4,28.3,25.03,NNW,337,16.0,-999.0,51,-99.99,,,-99.99,dwt +perl,2013-03-17 08:34:00,
2013-03-17 01:39:00,45.4,28.3,25.03,NW,311,25.0,-999.0,51,-99.99,,,-99.99,dwt +perl,2013-03-17 08:39:00,
2013-03-17 01:44:00,45.4,27.9,25.03,NNW,328,19.0,-999.0,50,-99.99,,,-99.99,dwt +perl,2013-03-17 08:44:00,
2013-03-17 01:49:00,45.3,28.2,25.03,North,354,17.0,-999.0,51,-99.99,,,-99.99,dwt +perl,2013-03-17 08:49:00,
2013-03-17 01:54:00,45.3,28.2,25.03,NNW,345,21.0,-999.0,51,-99.99,,,-99.99,dwt +perl,2013-03-17 08:54:00,
2013-03-17 01:59:00,45.4,27.9,25.03,NNW,327,15.0,-999.0,50,-99.99,,,-99.99,dwt +perl,2013-03-17 08:59:00,
2013-03-17 02:04:00,45.1,27.1,25.03,NW,310,20.0,-999.0,49,-99.99,,,-99.99,dwt +perl,2013-03-17 09:04:00,
2013-03-17 02:09:00,45.8,26.7,25.03,NNW,333,13.0,-999.0,47,-99.99,,,-99.99,dwt +perl,2013-03-17 09:09:00,
2013-03-17 02:14:00,45.8,27.2,25.03,NNW,338,17.0,-999.0,48,-99.99,,,-99.99,dwt +perl,2013-03-17 09:14:00,
2013-03-17 02:19:00,45.3,26.8,25.04,NNW,333,12.0,-999.0,48,-99.99,,,-99.99,dwt +perl,2013-03-17 09:19:00,
2013-03-17 02:24:00,45.5,27.0,25.03,NNW,332,19.0,-999.0,48,-99.99,,,-99.99,dwt +perl,2013-03-17 09:24:00,
2013-03-17 02:29:00,45.2,26.7,25.04,NNW,337,15.0,-999.0,48,-99.99,,,-99.99,dwt +perl,2013-03-17 09:29:00,
2013-03-17 02:34:00,45.4,26.9,25.04,NNW,332,23.0,-999.0,48,-99.99,,,-99.99,dwt +perl,2013-03-17 09:34:00,
2013-03-17 02:39:00,45.3,26.8,25.04,NE,34,10.0,-999.0,48,-99.99,,,-99.99,dwt +perl,2013-03-17 09:39:00,
2013-03-17 02:44:00,45.2,26.7,25.03,NW,318,21.0,-999.0,48,-99.99,,,-99.99,dwt +perl,2013-03-17 09:44:00,
2013-03-17 02:54:00,45.8,26.2,25.03,NW,323,20.0,-999.0,46,-99.99,,,-99.99,dwt +perl,2013-03-17 09:54:00,
2013-03-17 02:59:00,46.3,26.1,25.03,NW,322,22.0,-999.0,45,-99.99,,,-99.99,dwt +perl,2013-03-17 09:59:00,
2013-03-17 03:04:00,46.7,24.8,25.03,NNW,328,17.0,-999.0,42,-99.99,,,-99.99,dwt +perl,2013-03-17 10:04:00,
2013-03-17 03:09:00,47.0,24.5,25.03,NW,318,20.0,-999.0,41,-99.99,,,-99.99,dwt +perl,2013-03-17 10:09:00,
2013-03-17 03:14:00,47.0,24.5,25.03,NW,321,23.0,-999.0,41,-99.99,,,-99.99,dwt +perl,2013-03-17 10:14:00,
2013-03-17 03:24:00,44.4,27.9,25.03,North,4,11.0,-999.0,52,-99.99,,,-99.99,dwt +perl,2013-03-17 10:24:00,
2013-03-17 03:29:00,44.0,28.4,25.03,NNW,338,16.0,-999.0,54,-99.99,,,-99.99,dwt +perl,2013-03-17 10:29:00,
2013-03-17 03:34:00,43.9,28.8,25.03,NNW,347,10.0,-999.0,55,-99.99,,,-99.99,dwt +perl,2013-03-17 10:34:00,
2013-03-17 03:39:00,43.7,29.0,25.03,NNW,336,11.0,-999.0,56,-99.99,,,-99.99,dwt +perl,2013-03-17 10:39:00,
2013-03-17 03:44:00,43.8,29.1,25.03,NNW,337,11.0,-999.0,56,-99.99,,,-99.99,dwt +perl,2013-03-17 10:44:00,
2013-03-17 03:49:00,44.0,28.9,25.03,NNE,20,12.0,-999.0,55,-99.99,,,-99.99,dwt +perl,2013-03-17 10:49:00,
2013-03-17 03:54:00,44.0,29.3,25.03,NE,50,11.0,-999.0,56,-99.99,,,-99.99,dwt +perl,2013-03-17 10:54:00,
2013-03-17 03:59:00,43.6,29.4,25.03,NE,47,8.0,-999.0,57,-99.99,,,-99.99,dwt +perl,2013-03-17 10:59:00,
2013-03-17 04:04:00,43.8,29.1,25.03,NNE,21,14.0,-999.0,56,-99.99,,,-99.99,dwt +perl,2013-03-17 11:04:00,
2013-03-17 04:09:00,43.7,29.5,25.03,NNE,23,15.0,-999.0,57,-99.99,,,-99.99,dwt +perl,2013-03-17 11:09:00,
2013-03-17 04:14:00,43.0,29.7,25.03,NNE,22,10.0,-999.0,59,-99.99,,,-99.99,dwt +perl,2013-03-17 11:14:00,
2013-03-17 04:19:00,42.8,29.9,25.03,NNE,25,11.0,-999.0,60,-99.99,,,-99.99,dwt +perl,2013-03-17 11:19:00,
2013-03-17 04:24:00,42.7,29.8,25.02,NNE,24,15.0,-999.0,60,-99.99,,,-99.99,dwt +perl,2013-03-17 11:24:00,
2013-03-17 04:29:00,42.6,29.7,25.02,NE,43,11.0,-999.0,60,-99.99,,,-99.99,dwt +perl,2013-03-17 11:29:00,
2013-03-17 04:34:00,42.5,29.6,25.02,NE,44,10.0,-999.0,60,-99.99,,,-99.99,dwt +perl,2013-03-17 11:34:00,
2013-03-17 04:39:00,43.0,29.7,25.02,NNE,20,16.0,-999.0,59,-99.99,,,-99.99,dwt +perl,2013-03-17 11:39:00,
2013-03-17 04:44:00,43.5,29.7,25.02,NNE,17,17.0,-999.0,58,-99.99,,,-99.99,dwt +perl,2013-03-17 11:44:00,
2013-03-17 04:49:00,43.3,29.5,25.02,NNE,21,15.0,-999.0,58,-99.99,,,-99.99,dwt +perl,2013-03-17 11:49:00,
2013-03-17 04:54:00,43.4,29.6,25.02,NNE,17,13.0,-999.0,58,-99.99,,,-99.99,dwt +perl,2013-03-17 11:54:00,
2013-03-17 04:59:00,43.2,29.9,25.02,NE,41,10.0,-999.0,59,-99.99,,,-99.99,dwt +perl,2013-03-17 11:59:00,
2013-03-17 05:04:00,43.3,29.5,25.02,NNE,25,14.0,-999.0,58,-99.99,,,-99.99,dwt +perl,2013-03-17 12:04:00,
2013-03-17 05:14:00,43.2,29.4,25.02,North,8,15.0,-999.0,58,-99.99,,,-99.99,dwt +perl,2013-03-17 12:14:00,
2013-03-17 05:19:00,43.1,29.8,25.03,North,11,11.0,-999.0,59,-99.99,,,-99.99,dwt +perl,2013-03-17 12:19:00,
2013-03-17 05:29:00,43.5,29.3,25.02,NE,40,13.0,-999.0,57,-99.99,,,-99.99,dwt +perl,2013-03-17 12:29:00,
2013-03-17 05:34:00,43.4,29.2,25.02,NNE,26,10.0,-999.0,57,-99.99,,,-99.99,dwt +perl,2013-03-17 12:34:00,
2013-03-17 05:39:00,43.6,29.0,25.02,NNE,22,14.0,-999.0,56,-99.99,,,-99.99,dwt +perl,2013-03-17 12:39:00,
2013-03-17 05:44:00,43.6,29.4,25.03,NNE,31,11.0,-999.0,57,-99.99,,,-99.99,dwt +perl,2013-03-17 12:44:00,
2013-03-17 05:49:00,43.6,29.0,25.03,NE,49,18.0,-999.0,56,-99.99,,,-99.99,dwt +perl,2013-03-17 12:49:00,
2013-03-17 05:54:00,43.6,29.4,25.02,NNE,25,12.0,-999.0,57,-99.99,,,-99.99,dwt +perl,2013-03-17 12:54:00,
2013-03-17 05:59:00,43.4,29.2,25.02,NE,38,9.0,-999.0,57,-99.99,,,-99.99,dwt +perl,2013-03-17 12:59:00,
2013-03-17 06:04:00,43.4,28.8,25.02,NNE,25,17.0,-999.0,56,-99.99,,,-99.99,dwt +perl,2013-03-17 13:04:00,
2013-03-17 06:09:00,43.8,23.9,25.02,NNE,19,20.0,-999.0,45,-99.99,,,-99.99,dwt +perl,2013-03-17 13:09:00,
2013-03-17 06:14:00,44.1,24.6,25.02,NE,35,16.0,-999.0,46,-99.99,,,-99.99,dwt +perl,2013-03-17 13:14:00,
2013-03-17 06:19:00,44.7,20.7,25.02,NNE,24,20.0,-999.0,38,-99.99,,,-99.99,dwt +perl,2013-03-17 13:19:00,
2013-03-17 06:24:00,44.6,22.9,25.02,NNW,346,18.0,-999.0,42,-99.99,,,-99.99,dwt +perl,2013-03-17 13:24:00,
2013-03-17 06:29:00,44.8,21.4,25.03,North,4,11.0,-999.0,39,-99.99,,,-99.99,dwt +perl,2013-03-17 13:29:00,
2013-03-17 06:34:00,44.8,22.0,25.03,NE,37,11.0,-999.0,40,-99.99,,,-99.99,dwt +perl,2013-03-17 13:34:00,
2013-03-17 06:39:00,44.8,21.4,25.03,North,354,16.0,-999.0,39,-99.99,,,-99.99,dwt +perl,2013-03-17 13:39:00,
2013-03-17 06:44:00,45.0,20.9,25.03,NNE,24,10.0,-999.0,38,-99.99,,,-99.99,dwt +perl,2013-03-17 13:44:00,
2013-03-17 06:49:00,45.0,21.5,25.03,North,10,9.0,-999.0,39,-99.99,,,-99.99,dwt +perl,2013-03-17 13:49:00,
2013-03-17 06:54:00,44.8,21.4,25.03,NNE,18,11.0,-999.0,39,-99.99,,,-99.99,dwt +perl,2013-03-17 13:54:00,
2013-03-17 06:59:00,44.9,20.9,25.03,NNE,18,9.0,-999.0,38,-99.99,,,-99.99,dwt +perl,2013-03-17 13:59:00,
2013-03-17 07:04:00,45.2,19.9,25.04,NNE,17,12.0,-999.0,36,-99.99,,,-99.99,dwt +perl,2013-03-17 14:04:00,
2013-03-17 07:09:00,45.2,20.5,25.04,NNE,16,12.0,-999.0,37,-99.99,,,-99.99,dwt +perl,2013-03-17 14:09:00,
2013-03-17 07:14:00,45.5,18.8,25.04,North,9,12.0,-999.0,34,-99.99,,,-99.99,dwt +perl,2013-03-17 14:14:00,
2013-03-17 07:19:00,45.4,18.0,25.04,NNW,329,10.0,-999.0,33,-99.99,,,-99.99,dwt +perl,2013-03-17 14:19:00,
2013-03-17 07:24:00,45.7,16.8,25.05,NNE,26,8.0,-999.0,31,-99.99,,,-99.99,dwt +perl,2013-03-17 14:24:00,
2013-03-17 07:29:00,46.2,14.1,25.05,NNE,22,8.0,-999.0,27,-99.99,,,-99.99,dwt +perl,2013-03-17 14:29:00,
2013-03-17 07:34:00,46.3,14.2,25.05,NNE,25,7.0,-999.0,27,-99.99,,,-99.99,dwt +perl,2013-03-17 14:34:00,
2013-03-17 07:39:00,46.6,13.6,25.05,NNE,23,7.0,-999.0,26,-99.99,,,-99.99,dwt +perl,2013-03-17 14:39:00,
2013-03-17 07:44:00,46.7,10.9,25.05,NNE,14,8.0,-999.0,23,-99.99,,,-99.99,dwt +perl,2013-03-17 14:44:00,
2013-03-17 07:49:00,46.8,5.6,25.05,North,354,5.0,-999.0,18,-99.99,,,-99.99,dwt +perl,2013-03-17 14:49:00,
2013-03-17 07:54:00,46.8,3.0,25.06,NNE,19,9.0,-999.0,16,-99.99,,,-99.99,dwt +perl,2013-03-17 14:54:00,
2013-03-17 07:59:00,47.0,3.2,25.06,NNE,23,8.0,-999.0,16,-99.99,,,-99.99,dwt +perl,2013-03-17 14:59:00,
2013-03-17 08:04:00,47.3,0.6,25.06,North,359,8.0,-999.0,14,-99.99,,,-99.99,dwt +perl,2013-03-17 15:04:00,
2013-03-17 08:09:00,47.5,2.2,25.06,NNE,26,9.0,-999.0,15,-99.99,,,-99.99,dwt +perl,2013-03-17 15:09:00,
2013-03-17 08:14:00,47.7,-6.2,25.06,NNW,328,9.0,-999.0,10,-99.99,,,-99.99,dwt +perl,2013-03-17 15:14:00,
2013-03-17 08:19:00,48.0,-5.9,25.06,NE,34,7.0,-999.0,10,-99.99,,,-99.99,dwt +perl,2013-03-17 15:19:00,
2013-03-17 08:24:00,48.5,-7.7,25.07,NNW,332,9.0,-999.0,9,-99.99,,,-99.99,dwt +perl,2013-03-17 15:24:00,
2013-03-17 08:29:00,48.7,-9.9,25.07,NNE,25,7.0,-999.0,8,-99.99,,,-99.99,dwt +perl,2013-03-17 15:29:00,
2013-03-17 08:39:00,48.6,-10.0,25.08,NW,322,9.0,-999.0,8,-99.99,,,-99.99,dwt +perl,2013-03-17 15:39:00,
2013-03-17 08:44:00,48.6,-10.0,25.07,NW,321,10.0,-999.0,8,-99.99,,,-99.99,dwt +perl,2013-03-17 15:44:00,
2013-03-17 08:49:00,48.6,-10.0,25.07,NNE,15,9.0,-999.0,8,-99.99,,,-99.99,dwt +perl,2013-03-17 15:49:00,
2013-03-17 08:54:00,48.8,-7.5,25.08,North,354,9.0,-999.0,9,-99.99,,,-99.99,dwt +perl,2013-03-17 15:54:00,
2013-03-17 08:59:00,48.4,-5.6,25.07,NNW,345,11.0,-999.0,10,-99.99,,,-99.99,dwt +perl,2013-03-17 15:59:00,
2013-03-17 09:04:00,48.6,-5.5,25.07,North,4,10.0,-999.0,10,-99.99,,,-99.99,dwt +perl,2013-03-17 16:04:00,
2013-03-17 09:09:00,48.8,-3.3,25.07,NNE,12,8.0,-999.0,11,-99.99,,,-99.99,dwt +perl,2013-03-17 16:09:00,
2013-03-17 09:14:00,48.8,-1.5,25.07,NNE,21,9.0,-999.0,12,-99.99,,,-99.99,dwt +perl,2013-03-17 16:14:00,
2013-03-17 09:24:00,48.8,0.2,25.07,North,8,7.0,-999.0,13,-99.99,,,-99.99,dwt +perl,2013-03-17 16:24:00,
2013-03-17 09:29:00,48.6,-1.7,25.08,NW,318,9.0,-999.0,12,-99.99,,,-99.99,dwt +perl,2013-03-17 16:29:00,
2013-03-17 09:34:00,48.7,-1.6,25.08,North,10,11.0,-999.0,12,-99.99,,,-99.99,dwt +perl,2013-03-17 16:34:00,
2013-03-17 09:39:00,48.8,-1.5,25.08,NNW,328,13.0,-999.0,12,-99.99,,,-99.99,dwt +perl,2013-03-17 16:39:00,
2013-03-17 09:44:00,48.9,0.2,25.08,North,359,10.0,-999.0,13,-99.99,,,-99.99,dwt +perl,2013-03-17 16:44:00,
2013-03-17 09:49:00,48.6,-1.7,25.08,NNW,339,7.0,-999.0,12,-99.99,,,-99.99,dwt +perl,2013-03-17 16:49:00,
2013-03-17 09:54:00,48.7,0.1,25.08,NNW,337,8.0,-999.0,13,-99.99,,,-99.99,dwt +perl,2013-03-17 16:54:00,
2013-03-17 09:59:00,48.7,0.1,25.08,NNW,334,7.0,-999.0,13,-99.99,,,-99.99,dwt +perl,2013-03-17 16:59:00,
2013-03-17 10:04:00,49.2,0.5,25.08,NNW,347,7.0,-999.0,13,-99.99,,,-99.99,dwt +perl,2013-03-17 17:04:00,
2013-03-17 10:09:00,49.2,2.1,25.08,NW,317,9.0,-999.0,14,-99.99,,,-99.99,dwt +perl,2013-03-17 17:09:00,
2013-03-17 10:14:00,49.0,1.9,25.08,NNE,22,8.0,-999.0,14,-99.99,,,-99.99,dwt +perl,2013-03-17 17:14:00,
2013-03-17 10:19:00,48.9,1.8,25.08,NNW,333,9.0,-999.0,14,-99.99,,,-99.99,dwt +perl,2013-03-17 17:19:00,
2013-03-17 10:24:00,48.6,1.6,25.08,NW,316,12.0,-999.0,14,-99.99,,,-99.99,dwt +perl,2013-03-17 17:24:00,
2013-03-17 10:29:00,48.7,0.1,25.08,NNW,330,11.0,-999.0,13,-99.99,,,-99.99,dwt +perl,2013-03-17 17:29:00,
2013-03-17 10:34:00,48.6,0.0,25.08,NW,314,9.0,-999.0,13,-99.99,,,-99.99,dwt +perl,2013-03-17 17:34:00,
2013-03-17 10:39:00,49.1,0.4,25.08,WNW,303,6.0,-999.0,13,-99.99,,,-99.99,dwt +perl,2013-03-17 17:39:00,
2013-03-17 10:44:00,49.4,0.6,25.08,WNW,301,8.0,-999.0,13,-99.99,,,-99.99,dwt +perl,2013-03-17 17:44:00,
2013-03-17 10:49:00,49.7,0.9,25.09,NW,325,6.0,-999.0,13,-99.99,,,-99.99,dwt +perl,2013-03-17 17:49:00,
2013-03-17 10:54:00,49.8,-0.7,25.09,NNW,343,11.0,-999.0,12,-99.99,,,-99.99,dwt +perl,2013-03-17 17:54:00,
2013-03-17 10:59:00,49.9,1.0,25.09,North,359,8.0,-999.0,13,-99.99,,,-99.99,dwt +perl,2013-03-17 17:59:00,
2013-03-17 11:04:00,50.3,4.4,25.09,North,4,2.0,-999.0,15,-99.99,,,-99.99,dwt +perl,2013-03-17 18:04:00,
2013-03-17 11:09:00,50.6,3.2,25.09,NNE,27,7.0,-999.0,14,-99.99,,,-99.99,dwt +perl,2013-03-17 18:09:00,
2013-03-17 11:14:00,51.2,3.7,25.09,NNE,21,2.0,-999.0,14,-99.99,,,-99.99,dwt +perl,2013-03-17 18:14:00,
2013-03-17 11:19:00,50.9,3.4,25.09,NW,307,9.0,-999.0,14,-99.99,,,-99.99,dwt +perl,2013-03-17 18:19:00,
2013-03-17 11:24:00,50.9,4.9,25.09,NW,317,4.0,-999.0,15,-99.99,,,-99.99,dwt +perl,2013-03-17 18:24:00,
2013-03-17 11:29:00,50.8,4.8,25.09,NW,312,6.0,-999.0,15,-99.99,,,-99.99,dwt +perl,2013-03-17 18:29:00,
2013-03-17 11:34:00,51.3,3.8,25.09,NNW,328,7.0,-999.0,14,-99.99,,,-99.99,dwt +perl,2013-03-17 18:34:00,
2013-03-17 11:39:00,51.7,5.6,25.09,NW,306,8.0,-999.0,15,-99.99,,,-99.99,dwt +perl,2013-03-17 18:39:00,
2013-03-17 11:44:00,52.1,9.9,25.09,WNW,296,6.0,-999.0,18,-99.99,,,-99.99,dwt +perl,2013-03-17 18:44:00,
2013-03-17 11:49:00,52.1,9.9,25.09,NW,305,4.0,-999.0,18,-99.99,,,-99.99,dwt +perl,2013-03-17 18:49:00,
2013-03-17 11:54:00,52.1,8.6,25.09,NW,304,5.0,-999.0,17,-99.99,,,-99.99,dwt +perl,2013-03-17 18:54:00,
2013-03-17 11:59:00,52.1,16.4,25.09,WNW,289,1.0,-999.0,24,-99.99,,,-99.99,dwt +perl,2013-03-17 18:59:00,
2013-03-17 12:04:00,51.5,18.6,25.09,WNW,282,3.0,-999.0,27,-99.99,,,-99.99,dwt +perl,2013-03-17 19:04:00,
2013-03-17 12:09:00,50.9,21.4,25.09,WNW,286,0.0,-999.0,31,-99.99,,,-99.99,dwt +perl,2013-03-17 19:09:00,
2013-03-17 12:14:00,51.0,21.4,25.09,West,272,5.0,-999.0,31,-99.99,,,-99.99,dwt +perl,2013-03-17 19:14:00,
2013-03-17 12:24:00,51.2,19.2,25.09,SW,232,5.0,-999.0,28,-99.99,,,-99.99,dwt +perl,2013-03-17 19:24:00,
2013-03-17 12:34:00,51.0,22.2,25.09,West,272,4.0,-999.0,32,-99.99,,,-99.99,dwt +perl,2013-03-17 19:34:00,
2013-03-17 12:39:00,52.1,18.3,25.09,WNW,284,3.0,-999.0,26,-99.99,,,-99.99,dwt +perl,2013-03-17 19:39:00,
2013-03-17 12:44:00,52.2,8.7,25.09,NW,325,1.0,-999.0,17,-99.99,,,-99.99,dwt +perl,2013-03-17 19:44:00,
2013-03-17 12:49:00,52.2,10.0,25.10,NW,309,5.0,-999.0,18,-99.99,,,-99.99,dwt +perl,2013-03-17 19:49:00,
2013-03-17 12:54:00,51.5,5.4,25.09,West,281,4.0,-999.0,15,-99.99,,,-99.99,dwt +perl,2013-03-17 19:54:00,
2013-03-17 13:04:00,51.9,12.1,25.09,NW,322,8.0,-999.0,20,-99.99,,,-99.99,dwt +perl,2013-03-17 20:04:00,
2013-03-17 13:09:00,51.9,14.3,25.09,WNW,283,3.0,-999.0,22,-99.99,,,-99.99,dwt +perl,2013-03-17 20:09:00,
2013-03-17 13:14:00,52.3,12.4,25.09,WNW,303,12.0,-999.0,20,-99.99,,,-99.99,dwt +perl,2013-03-17 20:14:00,
2013-03-17 13:19:00,51.3,11.6,25.09,NW,310,6.0,-999.0,20,-99.99,,,-99.99,dwt +perl,2013-03-17 20:19:00,
2013-03-17 13:24:00,51.0,12.5,25.09,WNW,303,12.0,-999.0,21,-99.99,,,-99.99,dwt +perl,2013-03-17 20:24:00,
2013-03-17 13:34:00,52.2,15.5,25.09,NNW,330,5.0,-999.0,23,-99.99,,,-99.99,dwt +perl,2013-03-17 20:34:00,
2013-03-17 13:39:00,52.2,18.4,25.09,WSW,258,4.0,-999.0,26,-99.99,,,-99.99,dwt +perl,2013-03-17 20:39:00,
2013-03-17 13:44:00,53.3,18.4,25.09,West,260,5.0,-999.0,25,-99.99,,,-99.99,dwt +perl,2013-03-17 20:44:00,
2013-03-17 13:49:00,53.9,21.5,25.09,SW,218,9.0,-999.0,28,-99.99,,,-99.99,dwt +perl,2013-03-17 20:49:00,
2013-03-17 13:59:00,54.7,17.6,25.09,WSW,254,6.0,-999.0,23,-99.99,,,-99.99,dwt +perl,2013-03-17 20:59:00,
2013-03-17 14:04:00,54.2,19.1,25.09,WSW,241,9.0,-999.0,25,-99.99,,,-99.99,dwt +perl,2013-03-17 21:04:00,
2013-03-17 14:09:00,53.9,19.8,25.08,SSW,204,1.0,-999.0,26,-99.99,,,-99.99,dwt +perl,2013-03-17 21:09:00,
2013-03-17 14:14:00,53.7,17.8,25.08,WSW,240,4.0,-999.0,24,-99.99,,,-99.99,dwt +perl,2013-03-17 21:14:00,
2013-03-17 14:19:00,53.8,18.8,25.08,SSW,199,4.0,-999.0,25,-99.99,,,-99.99,dwt +perl,2013-03-17 21:19:00,
2013-03-17 14:24:00,54.2,20.1,25.08,WSW,244,5.0,-999.0,26,-99.99,,,-99.99,dwt +perl,2013-03-17 21:24:00,
2013-03-17 14:29:00,54.6,20.4,25.07,WSW,237,5.0,-999.0,26,-99.99,,,-99.99,dwt +perl,2013-03-17 21:29:00,
2013-03-17 14:39:00,54.4,19.3,25.07,West,280,8.0,-999.0,25,-99.99,,,-99.99,dwt +perl,2013-03-17 21:39:00,
2013-03-17 14:44:00,54.8,19.7,25.07,WSW,244,11.0,-999.0,25,-99.99,,,-99.99,dwt +perl,2013-03-17 21:44:00,
2013-03-17 14:49:00,54.1,20.0,25.07,WSW,244,10.0,-999.0,26,-99.99,,,-99.99,dwt +perl,2013-03-17 21:49:00,
2013-03-17 14:59:00,53.9,18.9,25.07,SW,235,5.0,-999.0,25,-99.99,,,-99.99,dwt +perl,2013-03-17 21:59:00,
2013-03-17 15:04:00,54.9,20.7,25.07,West,265,8.0,-999.0,26,-99.99,,,-99.99,dwt +perl,2013-03-17 22:04:00,
2013-03-17 15:14:00,54.9,22.4,25.06,West,276,6.0,-999.0,28,-99.99,,,-99.99,dwt +perl,2013-03-17 22:14:00,
2013-03-17 15:19:00,55.3,21.9,25.06,West,280,7.0,-999.0,27,-99.99,,,-99.99,dwt +perl,2013-03-17 22:19:00,
2013-03-17 15:24:00,55.2,22.7,25.06,SW,234,4.0,-999.0,28,-99.99,,,-99.99,dwt +perl,2013-03-17 22:24:00,
2013-03-17 15:29:00,55.2,21.8,25.06,West,270,10.0,-999.0,27,-99.99,,,-99.99,dwt +perl,2013-03-17 22:29:00,
2013-03-17 15:34:00,55.2,20.0,25.06,WSW,237,8.0,-999.0,25,-99.99,,,-99.99,dwt +perl,2013-03-17 22:34:00,
2013-03-17 15:39:00,55.5,22.1,25.06,West,276,5.0,-999.0,27,-99.99,,,-99.99,dwt +perl,2013-03-17 22:39:00,
2013-03-17 15:44:00,55.5,22.9,25.06,WNW,286,4.0,-999.0,28,-99.99,,,-99.99,dwt +perl,2013-03-17 22:44:00,
2013-03-17 15:54:00,55.1,18.0,25.05,West,262,5.0,-999.0,23,-99.99,,,-99.99,dwt +perl,2013-03-17 22:54:00,
2013-03-17 15:59:00,54.1,19.1,25.05,West,270,9.0,-999.0,25,-99.99,,,-99.99,dwt +perl,2013-03-17 22:59:00,
2013-03-17 16:04:00,53.2,17.4,25.06,WSW,237,11.0,-999.0,24,-99.99,,,-99.99,dwt +perl,2013-03-17 23:04:00,
2013-03-17 16:14:00,53.4,15.5,25.06,WSW,243,13.0,-999.0,22,-99.99,,,-99.99,dwt +perl,2013-03-17 23:14:00,
2013-03-17 16:19:00,53.2,17.4,25.06,WSW,246,8.0,-999.0,24,-99.99,,,-99.99,dwt +perl,2013-03-17 23:19:00,
2013-03-17 16:29:00,54.4,16.4,25.06,SW,228,15.0,-999.0,22,-99.99,,,-99.99,dwt +perl,2013-03-17 23:29:00,
2013-03-17 16:34:00,53.1,17.3,25.06,West,279,11.0,-999.0,24,-99.99,,,-99.99,dwt +perl,2013-03-17 23:34:00,
2013-03-17 16:44:00,53.4,16.5,25.06,SW,226,14.0,-999.0,23,-99.99,,,-99.99,dwt +perl,2013-03-17 23:44:00,
2013-03-17 16:49:00,53.2,16.4,25.06,SW,234,11.0,-999.0,23,-99.99,,,-99.99,dwt +perl,2013-03-17 23:49:00,
2013-03-17 16:54:00,53.2,16.4,25.06,WSW,256,5.0,-999.0,23,-99.99,,,-99.99,dwt +perl,2013-03-17 23:54:00,
2013-03-17 16:59:00,53.1,15.3,25.05,West,263,4.0,-999.0,22,-99.99,,,-99.99,dwt +perl,2013-03-17 23:59:00,
2013-03-17 17:04:00,53.1,16.3,25.06,NW,326,5.0,-999.0,23,-99.99,,,-99.99,dwt +perl,2013-03-18 00:04:00,
2013-03-17 17:09:00,53.2,14.3,25.05,WSW,240,10.0,-999.0,21,-99.99,,,-99.99,dwt +perl,2013-03-18 00:09:00,
2013-03-17 17:14:00,53.5,16.6,25.05,West,276,6.0,-999.0,23,-99.99,,,-99.99,dwt +perl,2013-03-18 00:14:00,
2013-03-17 17:19:00,53.6,13.5,25.05,WNW,298,12.0,-999.0,20,-99.99,,,-99.99,dwt +perl,2013-03-18 00:19:00,
2013-03-17 17:24:00,52.7,12.8,25.05,West,260,10.0,-999.0,20,-99.99,,,-99.99,dwt +perl,2013-03-18 00:24:00,
2013-03-17 17:29:00,52.4,13.6,25.05,WNW,301,5.0,-999.0,21,-99.99,,,-99.99,dwt +perl,2013-03-18 00:29:00,
2013-03-17 17:34:00,52.3,13.5,25.05,WSW,253,7.0,-999.0,21,-99.99,,,-99.99,dwt +perl,2013-03-18 00:34:00,
2013-03-17 17:39:00,52.1,14.4,25.05,WSW,246,11.0,-999.0,22,-99.99,,,-99.99,dwt +perl,2013-03-18 00:39:00,
2013-03-17 17:44:00,52.3,16.6,25.05,WSW,243,7.0,-999.0,24,-99.99,,,-99.99,dwt +perl,2013-03-18 00:44:00,
2013-03-17 17:54:00,51.5,13.9,25.05,West,273,4.0,-999.0,22,-99.99,,,-99.99,dwt +perl,2013-03-18 00:54:00,
2013-03-17 17:59:00,51.0,12.5,25.05,West,280,8.0,-999.0,21,-99.99,,,-99.99,dwt +perl,2013-03-18 00:59:00,
2013-03-17 18:04:00,50.1,13.8,25.05,WSW,255,6.0,-999.0,23,-99.99,,,-99.99,dwt +perl,2013-03-18 01:04:00,
2013-03-17 18:09:00,49.2,15.8,25.05,West,280,5.0,-999.0,26,-99.99,,,-99.99,dwt +perl,2013-03-18 01:09:00,
2013-03-17 18:14:00,48.5,17.7,25.05,WSW,244,9.0,-999.0,29,-99.99,,,-99.99,dwt +perl,2013-03-18 01:14:00,
2013-03-17 18:19:00,47.8,18.6,25.05,SW,220,6.0,-999.0,31,-99.99,,,-99.99,dwt +perl,2013-03-18 01:19:00,
2013-03-17 18:24:00,47.4,14.3,25.05,WSW,237,3.0,-999.0,26,-99.99,,,-99.99,dwt +perl,2013-03-18 01:24:00,
2013-03-17 18:29:00,47.7,13.6,25.05,NW,322,3.0,-999.0,25,-99.99,,,-99.99,dwt +perl,2013-03-18 01:29:00,
2013-03-17 18:34:00,47.8,13.7,25.05,NW,308,10.0,-999.0,25,-99.99,,,-99.99,dwt +perl,2013-03-18 01:34:00,
2013-03-17 18:39:00,47.8,13.7,25.04,NW,309,7.0,-999.0,25,-99.99,,,-99.99,dwt +perl,2013-03-18 01:39:00,
2013-03-17 18:49:00,48.3,13.2,25.04,NNE,12,6.0,-999.0,24,-99.99,,,-99.99,dwt +perl,2013-03-18 01:49:00,
2013-03-17 18:54:00,48.4,11.3,25.04,NNW,339,8.0,-999.0,22,-99.99,,,-99.99,dwt +perl,2013-03-18 01:54:00,
2013-03-17 18:59:00,48.2,12.2,25.04,NW,324,8.0,-999.0,23,-99.99,,,-99.99,dwt +perl,2013-03-18 01:59:00,
2013-03-17 19:04:00,47.9,12.9,25.04,NW,313,9.0,-999.0,24,-99.99,,,-99.99,dwt +perl,2013-03-18 02:04:00,
2013-03-17 19:09:00,47.8,13.7,25.04,NW,326,3.0,-999.0,25,-99.99,,,-99.99,dwt +perl,2013-03-18 02:09:00,
2013-03-17 19:14:00,47.5,12.5,25.04,North,359,6.0,-999.0,24,-99.99,,,-99.99,dwt +perl,2013-03-18 02:14:00,
2013-03-17 19:19:00,47.3,10.4,25.03,NNW,348,5.0,-999.0,22,-99.99,,,-99.99,dwt +perl,2013-03-18 02:19:00,
2013-03-17 19:24:00,47.3,11.4,25.04,North,359,5.0,-999.0,23,-99.99,,,-99.99,dwt +perl,2013-03-18 02:24:00,
2013-03-17 19:29:00,47.2,12.3,25.04,North,9,4.0,-999.0,24,-99.99,,,-99.99,dwt +perl,2013-03-18 02:29:00,
2013-03-17 19:34:00,47.2,11.3,25.03,NNE,25,7.0,-999.0,23,-99.99,,,-99.99,dwt +perl,2013-03-18 02:34:00,
2013-03-17 19:39:00,47.3,12.4,25.03,NNW,344,8.0,-999.0,24,-99.99,,,-99.99,dwt +perl,2013-03-18 02:39:00,
2013-03-17 19:44:00,47.2,12.3,25.03,North,354,7.0,-999.0,24,-99.99,,,-99.99,dwt +perl,2013-03-18 02:44:00,
2013-03-17 19:49:00,47.0,13.9,25.03,North,10,7.0,-999.0,26,-99.99,,,-99.99,dwt +perl,2013-03-18 02:49:00,
2013-03-17 19:54:00,47.1,14.9,25.03,NNW,345,5.0,-999.0,27,-99.99,,,-99.99,dwt +perl,2013-03-18 02:54:00,
2013-03-17 19:59:00,47.4,13.4,25.03,NNW,335,5.0,-999.0,25,-99.99,,,-99.99,dwt +perl,2013-03-18 02:59:00,
2013-03-17 20:04:00,47.8,8.7,25.03,NNW,341,6.0,-999.0,20,-99.99,,,-99.99,dwt +perl,2013-03-18 03:04:00,
2013-03-17 20:09:00,48.2,7.9,25.04,NNW,332,9.0,-999.0,19,-99.99,,,-99.99,dwt +perl,2013-03-18 03:09:00,
2013-03-17 20:14:00,48.7,5.9,25.04,NW,326,9.0,-999.0,17,-99.99,,,-99.99,dwt +perl,2013-03-18 03:14:00,
2013-03-17 20:16:00,49.2,5.0,25.04,NNW,344,6.0,-999.0,16,-99.99,,,-99.99,dwt +perl,2013-03-18 03:16:00,
2013-03-17 20:19:00,49.2,5.0,25.04,NNW,328,8.0,-999.0,16,-99.99,,,-99.99,dwt +perl,2013-03-18 03:19:00,
2013-03-17 20:24:00,49.2,5.0,25.04,NNW,344,6.0,-999.0,16,-99.99,,,-99.99,dwt +perl,2013-03-18 03:24:00,
2013-03-17 20:34:00,48.8,4.6,25.04,North,359,3.0,-999.0,16,-99.99,,,-99.99,dwt +perl,2013-03-18 03:34:00,
2013-03-17 20:39:00,48.8,5.9,25.04,NNE,20,5.0,-999.0,17,-99.99,,,-99.99,dwt +perl,2013-03-18 03:39:00,
2013-03-17 20:44:00,49.0,4.8,25.04,NNE,18,7.0,-999.0,16,-99.99,,,-99.99,dwt +perl,2013-03-18 03:44:00,
2013-03-17 20:49:00,49.6,6.6,25.05,NNE,25,5.0,-999.0,17,-99.99,,,-99.99,dwt +perl,2013-03-18 03:49:00,
2013-03-17 20:54:00,48.7,7.1,25.05,NNE,27,5.0,-999.0,18,-99.99,,,-99.99,dwt +perl,2013-03-18 03:54:00,
2013-03-17 20:59:00,48.3,6.8,25.05,NNE,26,9.0,-999.0,18,-99.99,,,-99.99,dwt +perl,2013-03-18 03:59:00,
2013-03-17 21:04:00,48.6,5.8,25.05,NNE,21,6.0,-999.0,17,-99.99,,,-99.99,dwt +perl,2013-03-18 04:04:00,
2013-03-17 21:09:00,48.4,5.6,25.05,NNE,26,5.0,-999.0,17,-99.99,,,-99.99,dwt +perl,2013-03-18 04:09:00,
2013-03-17 21:14:00,48.6,5.8,25.05,NE,36,4.0,-999.0,17,-99.99,,,-99.99,dwt +perl,2013-03-18 04:14:00,
2013-03-17 21:19:00,48.6,5.8,25.05,NE,39,4.0,-999.0,17,-99.99,,,-99.99,dwt +perl,2013-03-18 04:19:00,
2013-03-17 21:24:00,48.5,5.7,25.05,NE,39,4.0,-999.0,17,-99.99,,,-99.99,dwt +perl,2013-03-18 04:24:00,
2013-03-17 21:29:00,48.8,4.6,25.06,NNE,29,4.0,-999.0,16,-99.99,,,-99.99,dwt +perl,2013-03-18 04:29:00,
2013-03-17 21:34:00,49.1,4.9,25.06,NNE,31,3.0,-999.0,16,-99.99,,,-99.99,dwt +perl,2013-03-18 04:34:00,
2013-03-17 21:39:00,49.4,3.7,25.06,NNE,25,5.0,-999.0,15,-99.99,,,-99.99,dwt +perl,2013-03-18 04:39:00,
2013-03-17 21:44:00,49.5,3.8,25.06,NNE,27,3.0,-999.0,15,-99.99,,,-99.99,dwt +perl,2013-03-18 04:44:00,
2013-03-17 21:49:00,49.5,2.3,25.06,NNE,27,3.0,-999.0,14,-99.99,,,-99.99,dwt +perl,2013-03-18 04:49:00,
2013-03-17 21:54:00,49.7,2.5,25.06,NNE,27,4.0,-999.0,14,-99.99,,,-99.99,dwt +perl,2013-03-18 04:54:00,
2013-03-17 21:59:00,50.1,1.2,25.06,NNE,27,4.0,-999.0,13,-99.99,,,-99.99,dwt +perl,2013-03-18 04:59:00,
2013-03-17 22:04:00,50.2,2.9,25.06,NNE,26,3.0,-999.0,14,-99.99,,,-99.99,dwt +perl,2013-03-18 05:04:00,
2013-03-17 22:09:00,50.1,1.2,25.06,North,4,2.0,-999.0,13,-99.99,,,-99.99,dwt +perl,2013-03-18 05:09:00,
2013-03-17 22:14:00,50.1,2.8,25.06,North,4,3.0,-999.0,14,-99.99,,,-99.99,dwt +perl,2013-03-18 05:14:00,
2013-03-17 22:19:00,50.3,3.0,25.06,NW,319,10.0,-999.0,14,-99.99,,,-99.99,dwt +perl,2013-03-18 05:19:00,
2013-03-17 22:24:00,50.5,1.5,25.06,NW,326,8.0,-999.0,13,-99.99,,,-99.99,dwt +perl,2013-03-18 05:24:00,
2013-03-17 22:29:00,50.5,1.5,25.06,NW,323,8.0,-999.0,13,-99.99,,,-99.99,dwt +perl,2013-03-18 05:29:00,
2013-03-17 22:34:00,50.5,1.5,25.07,NNW,328,7.0,-999.0,13,-99.99,,,-99.99,dwt +perl,2013-03-18 05:34:00,
2013-03-17 22:39:00,50.3,3.0,25.07,NNW,330,5.0,-999.0,14,-99.99,,,-99.99,dwt +perl,2013-03-18 05:39:00,
2013-03-17 22:44:00,50.2,1.3,25.06,NNW,333,7.0,-999.0,13,-99.99,,,-99.99,dwt +perl,2013-03-18 05:44:00,
2013-03-17 22:49:00,50.4,1.4,25.06,NW,325,11.0,-999.0,13,-99.99,,,-99.99,dwt +perl,2013-03-18 05:49:00,
2013-03-17 22:54:00,50.7,1.7,25.07,NNW,328,7.0,-999.0,13,-99.99,,,-99.99,dwt +perl,2013-03-18 05:54:00,
2013-03-17 22:59:00,50.4,3.0,25.07,NNW,331,3.0,-999.0,14,-99.99,,,-99.99,dwt +perl,2013-03-18 05:59:00,
2013-03-17 23:04:00,50.1,2.8,25.07,NNW,337,8.0,-999.0,14,-99.99,,,-99.99,dwt +perl,2013-03-18 06:04:00,
2013-03-17 23:09:00,50.1,2.8,25.07,NW,324,8.0,-999.0,14,-99.99,,,-99.99,dwt +perl,2013-03-18 06:09:00,
2013-03-17 23:14:00,50.1,2.8,25.07,NW,326,6.0,-999.0,14,-99.99,,,-99.99,dwt +perl,2013-03-18 06:14:00,
2013-03-17 23:19:00,50.2,1.3,25.07,NW,324,11.0,-999.0,13,-99.99,,,-99.99,dwt +perl,2013-03-18 06:19:00,
2013-03-17 23:21:00,50.1,2.8,25.07,NNW,329,8.0,-999.0,14,-99.99,,,-99.99,dwt +perl,2013-03-18 06:21:00,
2013-03-17 23:24:00,50.4,1.4,25.07,NW,321,9.0,-999.0,13,-99.99,,,-99.99,dwt +perl,2013-03-18 06:24:00,
2013-03-17 23:29:00,50.1,2.8,25.07,NNW,329,8.0,-999.0,14,-99.99,,,-99.99,dwt +perl,2013-03-18 06:29:00,
2013-03-17 23:39:00,50.3,1.4,25.07,NNW,329,10.0,-999.0,13,-99.99,,,-99.99,dwt +perl,2013-03-18 06:39:00,
2013-03-17 23:44:00,50.4,1.4,25.07,NW,320,11.0,-999.0,13,-99.99,,,-99.99,dwt +perl,2013-03-18 06:44:00,
2013-03-17 23:49:00,50.3,1.4,25.07,NW,324,13.0,-999.0,13,-99.99,,,-99.99,dwt +perl,2013-03-18 06:49:00,
2013-03-17 23:54:00,50.4,1.4,25.07,NW,318,11.0,-999.0,13,-99.99,,,-99.99,dwt +perl,2013-03-18 06:54:00,
2013-03-17 23:59:00,50.5,1.5,25.07,NW,305,11.0,-999.0,13,-99.99,,,-99.99,dwt +perl,2013-03-18 06:59:00,